ONEWEB-0587

operational
NORAD ID: 54654 Int'l Des: 2022-166 Owner: ONEWEBN Country: UK Constellation: oneweb
LEOCIRCULARPOLARONEWEB_TYPE

Über ONEWEB-0587

Beschreibung wird geladen...

Live-Position

3D-Globus wird geladen...

Nächste Überflüge

Höhenverlauf

Altitude vs Time

uPlot chart will show altitude changes over time

Zweizeiliger Elementsatz

1 54654U 22166N 25251.39153184 .00000085 00000-0 17483-3 0 9999
2 54654 87.9222 300.1826 0001713 105.4025 254.7299 13.21825222134458
Epoch: 8. Sept. 2025 • Age: 18 hours

Aktueller Status

Höhe 1180.2 km
Geschwindigkeit 7.27 km/s
Subsatellitenpunkt 20.87°N, 102.66°W
Startdatum 8. Dez. 2022
Alter 2.7 years
Typ internet

Technische Details

Klassifizierung Payload
Masse 148.00 kg
Trockenmasse 140.00 kg
Gesamtmasse 148.00 kg
Länge 1.30 m
Durchmesser 1.00 m
Spannweite 5.00 m
Form Trapezoid+2 pan
Hersteller ONEWUS
Bus-Typ ARROW
Phasenstatus In Orbit
Besitzer/Staat ONEWEBN/UK

Große Konstellationen

Loading constellations...